Portada
METAR-TAF:

METAR-TAF

Aeroports :

Morristown, Nova Jersey, Estats Units d'Amèrica

latitud: 40-48N, longitud: 074-25W, altitud: 57 m

Observació

L'informe es va fer fa 57 minuts, a les 13:45 UTC
Vent 5 kt del Nord/Nord-Est
Temperatura 3°C
Humitat 100%
Pressió 1012 hPa
Visibilitat: 3.2 km
Cel cobert a una alçada de 500 ft
boirina

METAR: KMMU 181345Z 03005KT 2SM BR OVC005 03/03 A2987

Hora: 09:42 (14:42 UTC)


TAF: manca

Observacions i pronòstics meteorològics de més de 4000 aeroports (METAR i TAF).

Les estacions disponibles són els punts grocs i vermells al mapa.

Posi el ratolí al punt desitjat per veure el nom de l'estació.

Feu clic per veure les observacions i els pronòstics meteorològics.

Per canviar el mapa: feu clic els botons verds amb una creu de color negre per apropar; al botó verd amb un guió per allunyar la imatge; o en les fletxes verdes per a mapes adjacents.


METAR-TAF: